Time,TemperatureF,DewpointF,PressureIn,WindDirection,WindDirectionDegrees,WindSpeedMPH,WindSpeedGustMPH,Humidity,HourlyPrecipIn,Conditions,Clouds,dailyrainin,SoftwareType,DateUTC
2013-05-05 00:02:00,36.0,35.0,30.27,ENE,60,1.0,3.0,96,0.01,,,0.89,,2013-05-05 05:02:00,
2013-05-05 00:12:00,36.0,35.0,30.27,ENE,60,1.0,3.0,96,0.01,,,0.89,,2013-05-05 05:12:00,
2013-05-05 00:21:00,36.0,35.0,30.27,North,10,1.0,3.0,97,0.01,,,0.89,,2013-05-05 05:21:00,
2013-05-05 00:32:00,36.0,35.0,30.27,North,10,1.0,4.0,97,0.01,,,0.89,,2013-05-05 05:32:00,
2013-05-05 00:42:00,36.0,35.0,30.27,North,10,1.0,4.0,97,0.01,,,0.89,,2013-05-05 05:42:00,
2013-05-05 00:51:00,36.0,35.0,30.27,NNE,27,1.0,3.0,97,0.01,,,0.89,,2013-05-05 05:51:00,
2013-05-05 01:01:00,36.0,35.0,30.27,ENE,69,1.0,4.0,97,0.00,,,0.89,,2013-05-05 06:01:00,
2013-05-05 01:12:00,36.0,35.0,30.27,ENE,69,1.0,4.0,97,0.00,,,0.89,,2013-05-05 06:12:00,
2013-05-05 01:21:00,36.0,35.0,30.27,ENE,63,0.0,3.0,97,0.00,,,0.89,,2013-05-05 06:21:00,
2013-05-05 01:32:00,36.0,35.0,30.27,NE,52,0.0,3.0,97,0.00,,,0.89,,2013-05-05 06:32:00,
2013-05-05 01:42:00,36.0,35.0,30.27,NE,52,0.0,3.0,97,0.00,,,0.89,,2013-05-05 06:42:00,
2013-05-05 01:52:00,36.0,35.0,30.26,ENE,64,0.0,3.0,97,0.00,,,0.89,,2013-05-05 06:52:00,
2013-05-05 02:01:00,35.0,34.0,30.26,ENE,76,0.0,3.0,97,0.00,,,0.89,,2013-05-05 07:01:00,
2013-05-05 02:11:00,35.0,34.0,30.26,ENE,76,0.0,3.0,97,0.00,,,0.89,,2013-05-05 07:11:00,
2013-05-05 02:21:00,35.0,34.0,30.25,ENE,76,1.0,4.0,98,0.00,,,0.89,,2013-05-05 07:21:00,
2013-05-05 02:32:00,35.0,34.0,30.24,ENE,68,0.0,4.0,98,0.01,,,0.90,,2013-05-05 07:32:00,
2013-05-05 02:42:00,35.0,34.0,30.24,ENE,68,0.0,4.0,98,0.01,,,0.90,,2013-05-05 07:42:00,
2013-05-05 02:52:00,35.0,34.0,30.24,NE,55,0.0,6.0,98,0.01,,,0.90,,2013-05-05 07:52:00,
2013-05-05 03:02:00,35.0,34.0,30.24,ENE,64,0.0,4.0,98,0.01,,,0.90,,2013-05-05 08:02:00,
2013-05-05 03:11:00,35.0,34.0,30.24,ENE,64,0.0,4.0,98,0.01,,,0.90,,2013-05-05 08:11:00,
2013-05-05 03:21:00,35.0,34.0,30.24,NE,53,1.0,5.0,98,0.00,,,0.90,,2013-05-05 08:21:00,
2013-05-05 03:31:00,35.0,34.0,30.24,NNE,24,0.0,4.0,98,0.00,,,0.90,,2013-05-05 08:31:00,
2013-05-05 03:42:00,35.0,34.0,30.24,NNE,24,0.0,4.0,98,0.00,,,0.90,,2013-05-05 08:42:00,
2013-05-05 03:53:00,35.0,34.0,30.24,NNE,30,0.0,3.0,98,0.00,,,0.90,,2013-05-05 08:53:00,
2013-05-05 04:01:00,35.0,34.0,30.24,NNE,26,0.0,5.0,98,0.00,,,0.90,,2013-05-05 09:01:00,
2013-05-05 04:11:00,35.0,34.0,30.24,NNE,26,0.0,5.0,98,0.00,,,0.90,,2013-05-05 09:11:00,
2013-05-05 04:21:00,35.0,34.0,30.24,NE,50,0.0,3.0,98,0.00,,,0.90,,2013-05-05 09:21:00,
2013-05-05 04:33:00,35.0,34.0,30.24,ENE,60,0.0,3.0,98,0.00,,,0.90,,2013-05-05 09:33:00,
2013-05-05 04:42:00,35.0,34.0,30.24,ENE,60,0.0,3.0,98,0.00,,,0.90,,2013-05-05 09:42:00,
2013-05-05 04:52:00,35.0,34.0,30.24,North,10,1.0,4.0,98,0.00,,,0.90,,2013-05-05 09:52:00,
2013-05-05 05:03:00,35.0,34.0,30.23,ENE,57,1.0,3.0,98,0.00,,,0.90,,2013-05-05 10:03:00,
2013-05-05 05:12:00,35.0,34.0,30.23,ENE,57,1.0,3.0,98,0.00,,,0.90,,2013-05-05 10:12:00,
2013-05-05 05:22:00,35.0,34.0,30.23,NE,51,0.0,3.0,98,0.00,,,0.90,,2013-05-05 10:22:00,
2013-05-05 05:32:00,35.0,34.0,30.23,NE,56,0.0,2.0,98,0.00,,,0.90,,2013-05-05 10:32:00,
2013-05-05 05:42:00,35.0,34.0,30.23,NE,56,0.0,2.0,98,0.00,,,0.90,,2013-05-05 10:42:00,
2013-05-05 05:52:00,35.0,34.0,30.24,NE,50,0.0,3.0,98,0.00,,,0.90,,2013-05-05 10:52:00,
2013-05-05 06:01:00,35.0,34.0,30.24,North,355,1.0,3.0,98,0.00,,,0.90,,2013-05-05 11:01:00,
2013-05-05 06:12:00,35.0,34.0,30.24,North,355,1.0,3.0,98,0.00,,,0.90,,2013-05-05 11:12:00,
2013-05-05 06:21:00,35.0,34.0,30.24,NE,56,0.0,3.0,98,0.00,,,0.90,,2013-05-05 11:21:00,
2013-05-05 06:32:00,35.0,34.0,30.24,NE,34,0.0,2.0,98,0.00,,,0.90,,2013-05-05 11:32:00,
2013-05-05 06:42:00,35.0,34.0,30.24,NE,34,0.0,2.0,98,0.00,,,0.90,,2013-05-05 11:42:00,
2013-05-05 06:51:00,35.0,34.0,30.25,NE,54,1.0,4.0,98,0.00,,,0.90,,2013-05-05 11:51:00,
2013-05-05 07:02:00,35.0,34.0,30.25,NE,56,1.0,4.0,98,0.00,,,0.90,,2013-05-05 12:02:00,
2013-05-05 07:11:00,35.0,34.0,30.25,NE,56,1.0,4.0,98,0.00,,,0.90,,2013-05-05 12:11:00,
2013-05-05 07:21:00,35.0,34.0,30.25,ENE,59,1.0,3.0,98,0.00,,,0.90,,2013-05-05 12:21:00,
2013-05-05 07:32:00,36.0,35.0,30.25,NE,43,2.0,6.0,98,0.00,,,0.88,,2013-05-05 12:32:00,
2013-05-05 07:42:00,36.0,35.0,30.25,NE,43,2.0,6.0,98,0.00,,,0.88,,2013-05-05 12:42:00,
2013-05-05 07:52:00,36.0,35.0,30.25,ENE,63,1.0,3.0,98,0.00,,,0.88,,2013-05-05 12:52:00,
2013-05-05 08:01:00,36.0,35.0,30.25,ENE,59,1.0,4.0,98,0.00,,,0.88,,2013-05-05 13:01:00,
2013-05-05 08:11:00,36.0,35.0,30.25,ENE,59,1.0,4.0,98,0.00,,,0.88,,2013-05-05 13:11:00,
2013-05-05 08:21:00,36.0,35.0,30.26,NE,45,1.0,4.0,98,0.00,,,0.88,,2013-05-05 13:21:00,
2013-05-05 08:32:00,36.0,35.0,30.25,NE,34,1.0,5.0,98,0.00,,,0.86,,2013-05-05 13:32:00,
2013-05-05 08:42:00,36.0,35.0,30.25,NE,34,1.0,5.0,98,0.00,,,0.86,,2013-05-05 13:42:00,
2013-05-05 08:52:00,36.0,35.0,30.25,NNE,29,2.0,5.0,98,0.00,,,0.86,,2013-05-05 13:52:00,
2013-05-05 09:02:00,37.0,36.0,30.25,NE,54,1.0,5.0,98,0.00,,,0.86,,2013-05-05 14:02:00,
2013-05-05 09:11:00,37.0,36.0,30.25,NE,54,1.0,5.0,98,0.00,,,0.86,,2013-05-05 14:11:00,
2013-05-05 09:21:00,37.0,36.0,30.25,ENE,63,1.0,4.0,98,0.00,,,0.86,,2013-05-05 14:21:00,
2013-05-05 09:32:00,37.0,36.0,30.25,ENE,66,1.0,3.0,98,0.00,,,0.79,,2013-05-05 14:32:00,
2013-05-05 09:42:00,37.0,36.0,30.25,ENE,66,1.0,3.0,98,0.00,,,0.79,,2013-05-05 14:42:00,
2013-05-05 09:52:00,37.0,36.0,30.25,NNE,13,0.0,3.0,98,0.00,,,0.79,,2013-05-05 14:52:00,
2013-05-05 10:02:00,38.0,37.0,30.25,NE,45,2.0,8.0,97,0.00,,,0.79,,2013-05-05 15:02:00,
2013-05-05 10:11:00,38.0,37.0,30.25,NE,45,2.0,8.0,97,0.00,,,0.79,,2013-05-05 15:11:00,
2013-05-05 10:21:00,38.0,37.0,30.25,East,80,0.0,3.0,97,0.00,,,0.79,,2013-05-05 15:21:00,
2013-05-05 10:33:00,38.0,37.0,30.25,ESE,105,1.0,5.0,95,0.00,,,0.76,,2013-05-05 15:33:00,
2013-05-05 10:43:00,38.0,37.0,30.25,ESE,105,1.0,5.0,95,0.00,,,0.76,,2013-05-05 15:43:00,
2013-05-05 10:53:00,38.0,37.0,30.25,NNE,19,0.0,3.0,95,0.00,,,0.76,,2013-05-05 15:53:00,
2013-05-05 11:03:00,38.0,36.0,30.24,NE,47,0.0,4.0,94,0.00,,,0.76,,2013-05-05 16:03:00,
2013-05-05 11:12:00,38.0,36.0,30.24,NE,47,0.0,4.0,94,0.00,,,0.76,,2013-05-05 16:12:00,
2013-05-05 11:23:00,39.0,37.0,30.24,ENE,60,2.0,4.0,93,0.00,,,0.76,,2013-05-05 16:23:00,
2013-05-05 11:32:00,39.0,37.0,30.24,NNW,331,1.0,5.0,92,0.00,,,0.69,,2013-05-05 16:32:00,
2013-05-05 11:42:00,39.0,37.0,30.24,NNW,331,1.0,5.0,92,0.00,,,0.69,,2013-05-05 16:42:00,
2013-05-05 11:52:00,39.0,37.0,30.24,NNE,29,1.0,3.0,92,0.00,,,0.69,,2013-05-05 16:52:00,
2013-05-05 12:02:00,39.0,37.0,30.24,NE,40,1.0,5.0,93,0.00,,,0.69,,2013-05-05 17:02:00,
2013-05-05 12:12:00,39.0,37.0,30.24,NE,40,1.0,5.0,93,0.00,,,0.69,,2013-05-05 17:12:00,
2013-05-05 12:23:00,39.0,37.0,30.24,NNE,20,1.0,5.0,93,0.00,,,0.69,,2013-05-05 17:23:00,
2013-05-05 12:32:00,39.0,37.0,30.24,NNE,23,1.0,5.0,94,0.00,,,0.55,,2013-05-05 17:32:00,
2013-05-05 12:42:00,39.0,37.0,30.24,NNE,23,1.0,5.0,94,0.00,,,0.55,,2013-05-05 17:42:00,
2013-05-05 12:52:00,39.0,37.0,30.24,NNE,28,2.0,4.0,93,0.00,,,0.55,,2013-05-05 17:52:00,
2013-05-05 13:01:00,40.0,38.0,30.23,ENE,67,1.0,5.0,92,0.00,,,0.55,,2013-05-05 18:01:00,
2013-05-05 13:12:00,40.0,38.0,30.23,ENE,67,1.0,5.0,92,0.00,,,0.55,,2013-05-05 18:12:00,
2013-05-05 13:21:00,40.0,38.0,30.24,ENE,63,1.0,4.0,92,0.00,,,0.55,,2013-05-05 18:21:00,
2013-05-05 13:32:00,41.0,38.0,30.23,NE,41,0.0,4.0,90,0.00,,,0.42,,2013-05-05 18:32:00,
2013-05-05 13:42:00,41.0,38.0,30.23,NE,41,0.0,4.0,90,0.00,,,0.42,,2013-05-05 18:42:00,
2013-05-05 13:52:00,41.0,38.0,30.23,NNE,13,1.0,5.0,88,0.00,,,0.42,,2013-05-05 18:52:00,
2013-05-05 14:01:00,41.0,37.0,30.23,ENE,61,2.0,4.0,87,0.00,,,0.42,,2013-05-05 19:01:00,
2013-05-05 14:11:00,41.0,37.0,30.23,ENE,61,2.0,4.0,87,0.00,,,0.42,,2013-05-05 19:11:00,
2013-05-05 14:21:00,41.0,37.0,30.23,ENE,63,1.0,5.0,87,0.00,,,0.42,,2013-05-05 19:21:00,
2013-05-05 14:32:00,40.0,37.0,30.23,NNE,26,1.0,4.0,88,0.00,,,0.30,,2013-05-05 19:32:00,
2013-05-05 14:42:00,40.0,37.0,30.23,NNE,26,1.0,4.0,88,0.00,,,0.30,,2013-05-05 19:42:00,
2013-05-05 14:52:00,41.0,37.0,30.22,North,355,0.0,3.0,87,0.00,,,0.30,,2013-05-05 19:52:00,
2013-05-05 15:01:00,41.0,37.0,30.22,NNE,19,1.0,4.0,87,0.00,,,0.30,,2013-05-05 20:01:00,
2013-05-05 15:11:00,41.0,37.0,30.22,NNE,19,1.0,4.0,87,0.00,,,0.30,,2013-05-05 20:11:00,
2013-05-05 15:21:00,41.0,37.0,30.22,ENE,63,1.0,4.0,87,0.00,,,0.30,,2013-05-05 20:21:00,
2013-05-05 15:31:00,41.0,37.0,30.22,North,11,1.0,4.0,87,0.00,,,0.18,,2013-05-05 20:31:00,
2013-05-05 15:41:00,41.0,37.0,30.22,North,11,1.0,4.0,87,0.00,,,0.18,,2013-05-05 20:41:00,
2013-05-05 15:52:00,41.0,38.0,30.21,NNW,337,1.0,4.0,89,0.00,,,0.18,,2013-05-05 20:52:00,
2013-05-05 16:02:00,41.0,38.0,30.21,NE,48,0.0,3.0,89,0.00,,,0.18,,2013-05-05 21:02:00,
2013-05-05 16:11:00,41.0,38.0,30.21,NE,48,0.0,3.0,89,0.00,,,0.18,,2013-05-05 21:11:00,
2013-05-05 16:21:00,42.0,39.0,30.21,NE,44,1.0,3.0,88,0.00,,,0.18,,2013-05-05 21:21:00,
2013-05-05 16:33:00,42.0,39.0,30.20,ENE,74,1.0,5.0,88,0.00,,,0.12,,2013-05-05 21:33:00,
2013-05-05 16:42:00,42.0,39.0,30.20,ENE,74,1.0,5.0,88,0.00,,,0.12,,2013-05-05 21:42:00,
2013-05-05 16:53:00,42.0,38.0,30.20,ENE,67,1.0,5.0,87,0.00,,,0.12,,2013-05-05 21:53:00,
2013-05-05 17:02:00,43.0,39.0,30.20,ENE,58,0.0,4.0,86,0.00,,,0.12,,2013-05-05 22:02:00,
2013-05-05 17:12:00,43.0,39.0,30.20,ENE,58,0.0,4.0,86,0.00,,,0.12,,2013-05-05 22:12:00,
2013-05-05 17:22:00,43.0,38.0,30.19,NE,51,0.0,4.0,84,0.00,,,0.12,,2013-05-05 22:22:00,
2013-05-05 17:33:00,44.0,39.0,30.19,NNE,31,1.0,3.0,83,0.00,,,0.07,,2013-05-05 22:33:00,
2013-05-05 17:42:00,44.0,39.0,30.19,NNE,31,1.0,3.0,83,0.00,,,0.07,,2013-05-05 22:42:00,
2013-05-05 17:52:00,44.0,39.0,30.19,NNE,17,0.0,3.0,83,0.00,,,0.07,,2013-05-05 22:52:00,
2013-05-05 18:02:00,44.0,39.0,30.19,NE,38,1.0,3.0,81,0.00,,,0.07,,2013-05-05 23:02:00,
2013-05-05 18:11:00,44.0,39.0,30.19,NE,38,1.0,3.0,81,0.00,,,0.07,,2013-05-05 23:11:00,
2013-05-05 18:21:00,44.0,39.0,30.18,ENE,59,1.0,3.0,81,0.00,,,0.07,,2013-05-05 23:21:00,
2013-05-05 18:32:00,44.0,39.0,30.18,South,184,1.0,3.0,82,0.00,,,0.05,,2013-05-05 23:32:00,
2013-05-05 18:42:00,44.0,39.0,30.18,South,184,1.0,3.0,82,0.00,,,0.05,,2013-05-05 23:42:00,
2013-05-05 18:52:00,43.0,38.0,30.18,South,182,0.0,2.0,83,0.00,,,0.05,,2013-05-05 23:52:00,
2013-05-05 19:01:00,42.0,38.0,30.17,South,182,1.0,2.0,84,0.00,,,0.05,,2013-05-06 00:01:00,
2013-05-05 19:11:00,42.0,38.0,30.17,South,182,1.0,2.0,84,0.00,,,0.05,,2013-05-06 00:11:00,
2013-05-05 19:21:00,41.0,37.0,30.17,NE,34,0.0,3.0,86,0.00,,,0.05,,2013-05-06 00:21:00,
2013-05-05 19:31:00,41.0,37.0,30.17,NE,34,0.0,2.0,87,0.00,,,0.03,,2013-05-06 00:31:00,
2013-05-05 19:41:00,41.0,37.0,30.17,NE,34,0.0,2.0,87,0.00,,,0.03,,2013-05-06 00:41:00,
2013-05-05 19:52:00,39.0,36.0,30.17,NE,34,0.0,2.0,88,0.00,,,0.03,,2013-05-06 00:52:00,
2013-05-05 20:01:00,39.0,36.0,30.17,NE,34,0.0,1.0,90,0.00,,,0.03,,2013-05-06 01:01:00,
2013-05-05 20:11:00,39.0,36.0,30.17,NE,34,0.0,1.0,90,0.00,,,0.03,,2013-05-06 01:11:00,
2013-05-05 20:21:00,39.0,36.0,30.17,NE,34,0.0,1.0,90,0.00,,,0.03,,2013-05-06 01:21:00,
2013-05-05 20:31:00,40.0,37.0,30.17,NE,34,0.0,0.0,90,0.00,,,0.03,,2013-05-06 01:31:00,
2013-05-05 20:41:00,40.0,37.0,30.17,NE,34,0.0,0.0,90,0.00,,,0.03,,2013-05-06 01:41:00,
2013-05-05 20:52:00,39.0,36.0,30.17,NE,34,0.0,2.0,90,0.00,,,0.03,,2013-05-06 01:52:00,
2013-05-05 21:01:00,38.0,36.0,30.17,NE,34,0.0,1.0,91,0.00,,,0.03,,2013-05-06 02:01:00,
2013-05-05 21:12:00,38.0,36.0,30.17,NE,34,0.0,1.0,91,0.00,,,0.03,,2013-05-06 02:12:00,
2013-05-05 21:21:00,38.0,36.0,30.17,NE,34,0.0,0.0,92,0.00,,,0.03,,2013-05-06 02:21:00,
2013-05-05 21:32:00,37.0,35.0,30.18,NE,34,0.0,1.0,93,0.00,,,0.02,,2013-05-06 02:32:00,
2013-05-05 21:42:00,37.0,35.0,30.18,NE,34,0.0,1.0,93,0.00,,,0.02,,2013-05-06 02:42:00,
2013-05-05 21:52:00,36.0,34.0,30.18,NE,34,0.0,1.0,93,0.00,,,0.02,,2013-05-06 02:52:00,
2013-05-05 22:02:00,36.0,34.0,30.18,NE,34,0.0,0.0,94,0.00,,,0.02,,2013-05-06 03:02:00,
2013-05-05 22:11:00,36.0,34.0,30.18,NE,34,0.0,0.0,94,0.00,,,0.02,,2013-05-06 03:11:00,
2013-05-05 22:22:00,36.0,34.0,30.18,NE,34,0.0,0.0,94,0.00,,,0.02,,2013-05-06 03:22:00,
2013-05-05 22:33:00,36.0,35.0,30.18,NE,34,0.0,0.0,95,0.00,,,0.02,,2013-05-06 03:33:00,
2013-05-05 22:42:00,36.0,35.0,30.18,NE,34,0.0,0.0,95,0.00,,,0.02,,2013-05-06 03:42:00,
2013-05-05 22:52:00,36.0,35.0,30.17,NE,34,0.0,0.0,95,0.00,,,0.02,,2013-05-06 03:52:00,
2013-05-05 23:02:00,35.0,34.0,30.17,NE,34,0.0,0.0,96,0.00,,,0.02,,2013-05-06 04:02:00,
2013-05-05 23:12:00,35.0,34.0,30.17,NE,34,0.0,0.0,96,0.00,,,0.02,,2013-05-06 04:12:00,
2013-05-05 23:23:00,35.0,34.0,30.17,NE,34,0.0,0.0,96,0.00,,,0.02,,2013-05-06 04:23:00,
2013-05-05 23:32:00,35.0,34.0,30.17,NE,34,0.0,0.0,96,0.00,,,0.02,,2013-05-06 04:32:00,
2013-05-05 23:42:00,35.0,34.0,30.17,NE,34,0.0,0.0,96,0.00,,,0.02,,2013-05-06 04:42:00,
2013-05-05 23:53:00,35.0,34.0,30.17,NE,34,0.0,0.0,96,0.00,,,0.02,,2013-05-06 04:53:00,